GFSCGP_925_temp_084.txt.gz
Temp
16 16 15 16 17 18 15 17 18 18 17 18 17 15 15 16 15 15 14 14 14 13 16 18 19 20 19 19 19 18 18 18 17 16 16 15 16 16 16 17 18 18 18 16
15 15 16 15 16 17 17 18 18 18 17 17 16 15 15 15 15 16 16 14 13 13 13 15 17 17 18 19 19 18 18 17 18 16 17 16 15 15 16 16 16 17 17 17
16 18 15 16 16 17 17 16 17 19 16 15 15 15 15 16 15 15 16 14 14 13 12 12 14 15 16 17 17 17 18 17 17 17 16 16 16 15 16 15 15 15 15 15
17 16 15 16 16 16 16 16 17 16 16 16 14 15 15 16 14 15 12 12 11 11 11 11 12 14 15 16 17 17 17 17 16 16 16 16 16 15 15 15 15 15 15 14
16 15 15 16 17 16 17 15 16 16 13 15 15 14 15 14 19 18 14 12 11 10 11 10 11 13 14 16 16 17 17 17 16 16 16 16 15 15 16 15 15 15 15 15
16 15 16 16 14 17 13 14 12 11 12 13 14 14 15 16 18 19 14 12 10 10 10 10 12 14 14 15 16 16 16 16 15 14 15 15 15 15 15 15 15 15 15 15
15 16 15 15 14 15 15 15 14 14 11 13 12 13 14 17 17 17 14 12 10 10 10 9 9 11 14 14 15 15 15 15 15 14 14 14 15 15 15 15 15 15 15 15
14 15 14 15 15 14 14 15 13 13 11 14 12 13 15 15 13 12 12 13 12 11 10 10 10 12 13 14 15 15 14 14 13 14 14 13 14 14 14 14 14 14 14 14
14 16 14 15 14 16 15 15 14 10 1 9 12 14 16 13 12 12 12 12 12 11 10 10 11 12 13 14 13 13 14 14 14 14 14 14 14 13 13 13 12 13 13 13
14 15 13 14 15 14 15 13 14 10 10 11 13 14 15 13 13 13 12 12 13 11 10 9 10 11 12 12 13 13 13 12 12 13 13 13 13 13 13 13 13 12 12 12
13 14 13 13 13 13 14 14 13 13 11 10 10 13 12 14 12 12 13 13 12 10 9 8 9 9 10 11 12 12 12 12 12 12 13 13 13 13 12 12 12 12 12 12
13 12 10 12 13 12 14 14 13 13 11 9 10 13 13 13 11 12 13 12 10 9 8 7 8 8 9 9 10 10 10 10 10 11 12 12 12 12 12 12 11 11 11 11
12 11 8 12 13 12 13 13 13 11 10 9 11 13 11 11 11 12 12 10 9 8 7 7 7 7 8 8 8 8 9 9 10 11 11 12 12 12 12 11 10 10 10 11
13 11 12 15 14 12 12 11 12 14 11 13 12 12 12 10 11 11 9 9 8 8 7 7 6 6 6 6 6 6 6 6 7 7 7 8 8 9 9 9 10 10 9 9
12 12 10 10 10 12 11 11 11 13 15 15 15 13 14 12 11 9 8 8 8 8 8 7 6 6 6 5 5 6 6 5 5 5 5 5 5 6 7 7 8 9 9 9
10 10 9 9 9 9 11 11 10 11 11 12 11 11 12 12 10 8 8 8 8 8 8 7 6 6 5 5 6 6 7 7 7 7 6 5 5 6 6 6 6 6 6 7
9 9 9 10 8 9 11 10 9 9 10 11 12 12 10 10 10 10 9 9 9 8 7 6 5 5 5 5 5 6 6 6 7 6 6 5 5 5 5 5 5 5 4 4
7 7 7 6 7 10 10 7 9 10 10 10 11 10 10 9 9 8 8 8 9 8 7 5 6 6 6 6 6 6 6 6 6 6 5 5 4 3 3 3 3 4 3 2
8 7 4 7 6 7 9 9 8 10 11 9 10 7 7 7 7 9 6 7 7 6 6 6 6 6 6 6 6 7 7 6 6 5 4 3 2 2 1 1 -1 0 -0 0
6 7 7 1 6 6 8 8 7 9 8 9 8 6 5 5 7 6 6 6 7 6 5 5 5 5 5 5 4 4 4 3 3 2 2 1 1 1 1 -0 -1 -1 -1 -2
6 6 7 0 3 2 4 6 8 7 7 1 5 5 4 5 6 6 5 6 6 6 6 6 5 4 5 4 3 3 2 1 0 0 1 1 -0 -1 -1 -2 -2 -2 -3 -3
8 7 6 3 4 7 4 6 8 7 4 5 5 6 6 5 5 5 4 3 4 4 5 4 4 4 3 2 1 1 0 -0 -1 -1 -1 -1 -1 -3 -2 -3 -3 -4 -3 -3
6 7 6 7 7 6 3 7 6 4 4 5 4 5 5 5 5 4 3 2 3 4 4 4 3 2 1 0 -1 -1 -1 -2 -2 -2 -2 -4 -5 -5 -5 -5 -5 -5 -4 -4
3 3 5 6 5 6 4 5 5 4 4 5 5 5 5 5 3 2 2 1 1 3 2 2 1 0 -0 -1 -2 -2 -3 -4 -4 -4 -4 -5 -5 -5 -4 -4 -4 -4 -4 -4
3 3 1 1 4 4 5 5 4 4 3 3 4 4 4 3 2 2 -0 -2 -0 -1 -0 -1 -1 -2 -1 -2 -3 -3 -4 -5 -5 -6 -5 -5 -5 -5 -4 -4 -3 -4 -4 -4
2 3 4 3 4 5 5 3 4 3 4 3 3 2 1 1 0 -1 -3 -3 -3 -4 -4 -3 -3 -2 -3 -2 -3 -3 -5 -6 -6 -7 -8 -7 -7 -7 -6 -5 -4 -4 -4 -4

GFSCGP_925_temp_087.txt.gz
Temp
15 16 15 16 17 17 15 17 18 17 17 18 17 15 16 16 15 15 15 15 14 14 15 16 17 18 18 18 17 18 17 17 16 16 16 15 15 15 15 15 16 17 17 18
15 15 16 14 15 16 17 17 18 17 16 17 16 16 16 15 16 16 14 14 14 12 12 13 15 16 16 17 17 16 17 16 17 16 15 15 15 15 15 15 15 16 16 16
16 17 14 15 16 17 16 17 16 18 16 14 15 16 16 16 15 13 11 12 12 11 12 11 12 13 14 15 16 16 17 16 16 16 15 15 15 15 15 15 14 14 15 15
17 14 14 14 15 15 16 15 15 16 16 16 14 17 16 14 17 13 12 10 10 10 10 10 11 12 13 13 15 16 16 15 15 15 15 15 15 15 15 15 15 15 14 15
16 14 14 15 17 16 17 14 15 15 13 15 15 15 16 14 18 15 12 11 10 10 9 9 10 11 12 14 14 15 15 15 15 14 14 14 15 15 15 15 15 15 15 15
15 14 16 16 13 15 12 13 12 11 12 14 14 15 15 16 18 16 13 11 11 10 10 10 11 12 12 14 14 15 14 14 14 14 14 14 14 14 14 15 15 15 14 14
15 15 14 14 13 14 15 15 13 14 12 14 11 13 15 17 15 14 13 12 11 10 9 9 9 10 11 12 13 14 14 14 14 13 13 13 13 13 13 14 14 14 14 14
13 15 13 14 15 14 13 16 14 14 12 14 11 13 15 13 12 12 13 12 10 10 9 8 8 9 9 10 11 12 12 12 13 13 13 13 13 12 12 12 12 13 13 13
14 15 14 14 14 16 15 15 13 10 1 9 12 13 14 12 12 12 13 11 10 9 8 8 8 9 9 9 10 11 11 11 11 12 12 12 13 13 13 13 12 12 12 12
15 14 13 13 14 14 14 12 14 10 10 11 13 13 14 11 12 12 12 11 10 9 8 7 7 8 9 9 9 10 10 10 11 12 12 12 12 12 12 12 12 12 12 12
13 14 12 13 13 13 14 14 12 13 11 10 10 13 11 13 12 11 11 11 9 8 7 7 7 8 9 9 10 10 10 10 11 11 11 11 11 11 11 11 11 11 11 11
13 12 11 12 13 12 13 13 13 13 11 8 10 13 12 12 11 11 11 10 8 7 7 6 7 7 8 8 9 9 10 11 10 11 11 11 11 11 11 10 10 10 10 10
12 11 7 12 13 11 12 12 12 11 10 9 12 13 9 10 10 10 10 9 8 7 7 6 6 6 7 7 8 8 9 9 10 11 11 11 11 12 11 11 11 10 9 9
13 11 13 15 15 11 12 12 12 14 12 12 12 12 11 9 10 10 9 8 8 7 7 6 5 6 6 6 7 7 7 7 8 8 8 8 8 8 8 8 9 9 9 9
12 11 11 9 11 12 12 11 11 13 16 15 16 13 13 11 10 10 8 7 7 7 7 6 5 5 5 5 5 5 6 6 6 6 6 6 6 6 7 7 7 8 7 7
9 9 9 9 9 10 12 11 12 14 13 12 11 13 13 11 9 8 8 7 7 7 7 6 5 5 5 4 5 5 5 5 5 5 5 4 4 4 4 4 5 5 5 5
9 9 9 11 8 9 11 11 10 11 10 13 12 12 9 9 10 9 8 8 8 7 6 5 5 5 5 6 6 6 7 6 7 6 6 6 5 5 5 4 4 4 4 3
7 8 8 7 9 11 12 8 9 10 10 10 11 10 11 11 10 9 7 7 6 6 6 5 5 5 6 6 6 7 7 7 6 6 5 4 4 3 3 3 2 1 1 1
8 7 5 8 6 8 9 8 8 10 11 9 10 9 9 7 8 8 7 7 6 6 6 6 6 6 6 6 6 6 6 6 6 6 5 4 3 3 3 2 2 1 0 -0
7 8 9 5 7 7 9 8 8 10 9 8 9 8 6 6 8 7 5 5 5 6 6 6 6 6 6 6 5 5 4 3 3 2 2 2 2 1 1 0 -0 -1 -1 -1
7 7 8 6 7 5 5 6 7 8 9 1 6 6 5 6 6 4 3 5 6 5 5 5 5 5 4 4 3 3 2 1 -0 -0 -0 -0 -1 -1 -1 -3 -3 -3 -4 -4
7 7 6 3 6 8 4 6 9 8 4 4 4 4 5 4 4 4 4 5 5 4 5 5 5 4 2 2 1 1 -0 -1 -1 -1 -1 -2 -2 -4 -5 -5 -5 -5 -5 -5
8 7 5 6 7 5 3 7 6 4 4 4 4 3 3 3 3 3 4 4 4 4 4 3 2 2 1 -0 -1 -1 -1 -2 -2 -2 -2 -2 -2 -3 -4 -4 -4 -4 -4 -5
4 4 6 7 5 6 4 4 4 4 4 3 3 2 3 3 2 2 2 1 1 2 1 1 0 -0 -1 -1 -2 -2 -3 -3 -4 -4 -4 -4 -4 -4 -4 -5 -5 -4 -4 -4
3 3 2 2 4 4 5 5 3 3 3 3 2 3 2 2 2 1 -2 -2 -2 -2 -2 -2 -2 -3 -3 -4 -4 -4 -4 -5 -5 -6 -6 -6 -6 -6 -6 -6 -6 -5 -4 -4
1 3 5 4 4 5 6 4 3 3 3 2 2 1 1 2 0 -2 -4 -4 -4 -5 -5 -5 -5 -5 -5 -6 -6 -6 -7 -7 -7 -8 -8 -8 -8 -8 -8 -7 -6 -5 -4 -4

GFSCGP_925_temp_093.txt.gz
Temp
22 22 22 24 25 26 27 25 24 25 21 22 23 24 26 27 24 25 26 26 25 25 24 21 20 20 20 21 21 21 20 20 19 16 15 16 16 15 16 16 16 16 16 15
20 21 24 24 23 23 25 24 25 21 20 21 23 23 25 25 24 23 24 24 24 23 22 19 19 18 18 19 19 20 20 20 19 17 16 15 16 15 16 16 16 16 16 15
22 22 21 21 21 22 24 25 24 24 20 20 21 23 25 22 21 20 20 20 20 21 21 19 18 18 17 17 17 18 19 19 19 18 16 15 15 15 15 15 15 15 16 15
22 18 19 20 21 23 22 22 23 20 22 24 21 25 25 24 22 20 20 21 21 19 19 18 18 17 15 15 14 15 17 18 18 18 18 16 16 16 16 16 16 16 16 16
20 18 19 20 22 22 22 21 22 22 22 22 22 22 27 22 22 21 20 19 19 19 19 18 16 15 14 14 14 14 15 16 16 17 17 17 15 15 16 16 15 15 15 15
18 17 20 21 19 20 19 20 20 21 21 21 23 23 26 23 23 21 19 19 18 18 17 16 15 15 14 13 14 14 14 14 14 15 16 16 15 15 15 15 15 15 15 15
17 18 17 18 18 18 21 21 19 19 19 20 17 19 24 21 22 21 19 18 18 18 18 17 16 15 14 13 13 13 13 13 12 11 12 13 13 14 14 14 14 14 14 14
19 18 17 18 21 19 19 22 20 18 19 20 14 18 22 20 19 21 19 18 18 17 16 16 15 14 13 13 13 12 12 12 12 12 12 12 12 12 12 12 12 12 12 12
20 19 16 17 18 20 19 19 20 16 10 18 20 21 19 17 18 19 18 17 17 17 16 15 14 13 12 12 12 12 11 11 11 11 11 11 11 11 10 10 10 10 10 10
20 16 15 14 17 17 19 21 19 19 16 18 20 21 23 16 17 17 17 17 17 16 15 15 14 12 12 11 11 10 10 10 10 10 9 9 9 10 9 9 10 10 9 10
20 19 13 15 16 19 17 18 19 21 20 19 20 22 23 20 18 18 18 18 17 15 15 14 13 12 11 11 10 10 9 9 8 9 9 9 9 9 9 9 9 9 9 10
16 17 15 16 14 14 19 21 20 19 17 18 17 22 17 21 20 19 19 18 16 15 14 13 12 12 11 11 10 9 8 8 8 8 8 8 8 8 9 9 9 9 9 9
16 14 13 14 16 14 16 18 20 22 17 14 18 22 16 19 20 19 18 17 15 14 14 13 12 12 11 10 9 8 7 7 7 8 8 8 7 7 8 8 8 8 8 8
16 15 17 18 19 19 16 17 17 20 17 18 19 22 16 18 19 18 17 16 14 14 14 13 13 12 10 10 9 8 7 7 7 7 8 8 8 8 8 8 8 8 8 7
16 14 16 19 20 19 19 17 17 18 19 19 21 20 22 18 18 18 17 16 14 14 13 13 12 11 10 9 8 8 6 7 7 7 8 7 7 7 7 7 7 7 7 6
13 12 16 12 16 14 15 16 17 17 18 19 20 21 23 20 19 18 16 15 14 14 13 13 11 10 9 8 7 6 6 7 7 7 6 5 5 5 5 5 5 5 5 4
12 11 11 14 11 12 13 13 17 17 18 20 19 21 19 18 18 17 16 15 14 14 13 12 10 9 8 7 6 6 5 6 6 4 4 4 4 4 3 4 3 3 3 2
9 10 11 11 11 13 16 15 18 18 18 19 20 20 18 18 17 17 16 15 14 13 12 11 10 8 6 5 5 5 6 5 4 3 3 3 3 3 3 3 2 2 2 2
11 12 11 12 11 14 16 12 13 15 17 18 19 19 17 17 16 16 16 15 13 12 10 9 8 7 5 5 5 5 4 4 3 3 2 2 2 2 2 2 1 1 1 1
7 11 12 10 12 13 15 13 13 15 13 17 16 16 14 13 13 15 12 11 10 9 8 7 6 5 5 5 4 3 3 3 2 2 2 2 1 1 0 0 0 0 -0 -0
9 9 10 10 12 12 10 9 11 13 14 8 13 15 12 13 15 14 10 9 8 7 6 5 5 5 4 3 3 3 2 2 1 1 1 1 1 0 0 -0 -0 -1 -1 -3
10 10 10 10 11 12 9 9 13 12 8 8 10 12 11 9 8 8 9 7 6 5 4 5 4 3 2 2 2 2 2 1 1 1 1 1 1 0 -1 -1 -2 -2 -4 -4
10 12 11 11 12 9 10 9 9 9 9 8 9 9 9 8 8 8 7 6 5 5 3 3 3 1 1 1 2 1 0 0 0 0 0 -0 -1 -1 -2 -4 -4 -4 -4 -4
8 8 10 10 10 10 8 8 7 8 8 7 7 7 8 8 7 6 4 3 2 1 1 2 1 0 -0 -0 0 -0 -1 -1 -1 -1 -2 -3 -4 -4 -4 -5 -5 -6 -5 -5
9 8 8 8 6 7 8 8 8 6 6 6 6 7 7 6 5 4 3 1 0 -0 -0 1 0 -0 -1 -1 -2 -2 -2 -2 -3 -3 -4 -5 -6 -6 -6 -6 -7 -7 -6 -6
7 9 10 11 9 11 10 7 6 6 6 5 5 4 4 5 4 3 1 1 -1 -2 -2 -1 -1 -2 -3 -3 -4 -4 -4 -4 -5 -6 -7 -8 -8 -8 -8 -8 -8 -7 -7 -6

GFSCGP_925_temp_096.txt.gz
Temp
19 19 19 20 21 22 23 22 22 21 21 21 20 22 22 20 21 22 22 21 21 21 20 21 21 21 22 22 22 22 21 20 18 17 16 16 16 16 16 16 16 16 16 16
18 18 20 22 22 22 23 21 21 19 19 19 20 20 21 22 21 21 21 22 22 21 19 19 19 19 19 20 20 21 21 20 19 18 17 16 16 16 16 16 16 16 16 16
19 20 21 21 21 21 22 22 20 20 18 20 20 19 20 22 21 20 19 19 20 21 18 17 18 17 17 17 18 19 20 20 20 19 17 16 16 15 16 15 16 16 16 16
20 19 19 19 20 21 21 22 20 18 19 19 20 18 20 18 18 18 18 17 17 16 17 16 17 16 15 15 15 17 18 19 19 19 18 17 16 16 16 16 16 15 15 15
17 17 18 19 20 21 20 20 20 20 20 20 20 18 22 18 18 17 17 17 17 16 15 14 15 14 14 14 14 15 16 17 18 18 17 17 16 16 16 15 15 15 15 15
17 17 19 19 18 20 18 18 19 20 19 17 19 18 19 18 19 18 17 16 15 15 14 14 15 14 13 13 14 14 15 15 16 16 17 17 16 15 15 15 15 15 14 15
17 17 16 17 16 17 19 18 15 16 14 15 13 18 19 21 21 17 16 15 14 14 13 12 12 13 13 13 13 13 13 13 14 15 15 15 14 14 14 14 14 13 13 13
16 15 15 17 18 16 16 18 15 15 14 15 13 15 18 18 19 17 16 14 14 13 13 12 12 12 12 12 12 12 12 12 12 12 12 12 12 12 12 12 12 11 11 11
17 16 15 16 17 18 16 17 18 14 8 12 14 17 17 16 17 16 15 14 13 13 12 11 12 12 12 12 11 11 11 11 11 11 11 11 11 11 11 11 11 11 11 11
20 14 14 14 16 17 17 18 16 16 12 13 15 17 17 14 15 15 14 13 13 12 12 11 12 11 11 10 10 10 10 10 10 10 10 10 10 10 10 10 10 10 10 10
20 16 13 14 14 16 16 17 18 18 15 13 12 15 19 16 16 16 15 14 13 12 11 10 11 11 11 10 10 9 9 9 9 9 9 10 9 10 10 10 10 9 9 10
17 14 11 14 14 14 15 18 18 16 15 14 13 15 17 17 16 15 15 15 12 12 11 10 11 11 10 10 9 9 8 9 9 9 9 9 9 9 9 9 9 8 8 8
15 13 10 13 15 14 15 16 18 18 14 12 12 15 15 17 15 16 15 14 13 12 11 10 10 10 10 9 8 8 8 8 8 8 8 8 8 8 8 8 7 7 7 7
15 13 14 16 16 15 14 15 16 17 12 14 14 18 16 16 16 15 15 14 13 12 11 10 9 10 9 9 8 7 7 7 7 8 8 7 7 7 7 7 7 7 7 7
15 12 13 16 18 17 16 16 15 16 17 17 19 17 17 15 16 17 16 13 12 12 11 11 9 9 9 9 8 7 7 7 7 7 7 6 6 7 7 7 7 7 6 6
13 11 13 11 15 15 15 15 16 16 17 17 18 17 19 16 16 15 15 13 12 12 12 11 9 8 8 8 7 6 6 6 7 7 7 6 7 7 7 6 5 5 5 4
11 10 11 12 11 12 12 12 14 16 17 17 17 19 18 15 16 15 14 14 13 12 11 10 9 8 7 7 7 6 6 6 7 7 6 6 5 5 4 4 4 4 4 3
8 8 9 9 10 10 15 16 16 15 16 16 17 17 16 15 16 15 16 14 13 12 11 10 8 7 7 7 6 6 6 6 6 5 5 4 4 4 4 4 4 3 3 3
11 9 10 10 8 11 13 11 13 14 15 16 16 17 16 16 14 13 15 14 13 12 11 9 7 6 6 6 6 6 5 4 4 3 3 3 3 4 4 4 3 2 2 2
9 11 12 10 12 12 13 14 13 14 14 14 15 16 14 12 14 14 12 12 11 11 9 7 6 6 5 5 5 5 4 3 3 3 2 2 2 3 3 2 2 2 1 1
9 9 10 11 11 9 10 10 12 12 14 8 11 14 12 14 16 13 9 9 9 8 6 5 5 4 5 4 4 4 3 3 2 2 2 2 2 2 2 2 1 1 1 0
10 10 10 10 11 11 8 9 12 11 8 9 10 12 10 8 9 8 8 6 5 4 4 4 3 3 3 4 4 3 2 2 2 2 2 2 2 1 1 1 0 -0 -1 -2
9 9 10 10 10 8 8 9 8 8 9 9 9 9 8 6 7 6 5 4 4 4 3 3 2 1 2 3 4 2 1 1 1 1 1 2 1 1 -0 -1 -2 -3 -4 -5
8 8 8 9 9 9 8 8 7 8 8 7 7 7 6 5 5 4 3 2 1 1 0 0 -0 -1 -1 1 1 2 0 0 1 1 1 0 0 -0 -2 -3 -5 -6 -6 -6
6 6 6 6 7 7 7 6 8 7 6 6 6 5 5 4 3 3 2 1 1 0 1 2 0 -1 -1 -1 -1 -1 -0 -0 0 -0 -1 -1 -2 -4 -4 -5 -5 -6 -6 -7
4 7 7 7 9 10 10 8 6 5 5 4 4 4 4 3 3 2 1 0 -0 -1 -0 1 1 -0 -2 -2 -2 -2 -1 -1 -1 -2 -3 -4 -5 -6 -6 -7 -7 -7 -7 -7

GFSCGP_925_temp_102.txt.gz
Temp
17 16 17 18 16 18 18 19 19 19 19 19 17 19 18 18 18 17 16 16 15 15 18 20 20 21 21 20 20 20 19 19 18 17 16 16 16 16 16 16 16 16 16 15
16 17 18 18 18 19 18 18 18 17 18 19 17 18 18 17 17 16 17 16 16 16 15 17 19 19 20 20 19 19 19 19 18 17 17 16 17 16 16 16 16 16 16 15
16 17 17 17 17 18 17 17 16 19 17 18 17 17 19 18 17 18 17 16 16 15 14 14 16 18 19 19 19 19 18 19 18 18 17 16 17 16 16 16 16 16 16 15
16 17 17 17 18 19 17 18 17 16 17 17 17 16 16 17 16 16 16 15 15 14 14 13 14 15 17 18 18 18 18 18 17 17 17 17 17 17 17 17 16 16 15 15
17 16 15 17 19 18 18 17 17 15 16 16 17 16 16 15 16 16 15 14 13 13 12 12 12 14 15 16 16 17 18 17 17 17 18 18 18 17 16 16 15 14 14 14
16 16 17 17 17 18 16 17 15 14 15 15 15 16 16 14 16 18 16 14 13 12 11 11 12 13 13 14 14 15 16 17 17 17 17 19 17 16 15 15 14 13 13 13
15 16 16 17 17 17 17 17 15 15 13 14 13 14 17 17 15 16 16 14 12 11 10 9 9 11 12 12 13 13 14 15 17 16 16 18 16 16 15 14 13 13 12 13
15 15 15 16 17 16 15 18 13 13 12 14 13 14 17 15 15 14 14 13 10 9 9 9 9 10 11 11 11 12 13 14 15 15 15 17 16 15 14 13 13 13 13 12
14 15 14 15 16 17 17 16 16 12 4 11 13 14 15 15 15 14 12 11 10 9 8 8 9 10 10 10 10 11 12 13 14 14 15 15 14 14 13 12 12 12 11 10
15 15 13 15 15 17 16 16 16 13 12 12 14 14 16 15 15 13 11 11 9 9 8 7 8 9 9 10 10 10 11 11 12 13 13 13 12 12 11 11 11 10 9 9
14 14 13 14 14 15 15 15 16 15 13 13 11 15 13 16 16 14 11 10 10 8 8 7 7 8 9 9 9 9 10 10 10 11 11 11 10 10 10 10 9 10 9 9
15 12 11 13 14 13 15 16 15 17 14 12 12 15 16 14 14 13 12 11 9 9 8 6 7 8 8 8 8 9 9 9 9 10 10 10 9 9 9 9 9 9 9 8
13 12 10 13 15 13 13 14 16 13 11 12 13 15 14 13 14 12 11 10 9 8 7 6 6 6 7 7 8 8 8 8 8 9 9 8 8 9 9 8 8 8 8 8
15 12 13 15 16 14 14 14 14 15 12 12 13 17 17 16 14 12 11 11 10 9 8 7 7 6 6 7 7 7 7 8 8 8 8 8 8 8 8 8 7 7 7 7
15 11 12 15 15 15 16 14 15 15 18 17 18 14 17 15 14 12 11 10 10 9 9 8 7 6 6 6 6 7 7 7 7 7 7 7 7 7 7 7 7 7 7 6
12 10 13 12 14 15 16 14 15 16 16 16 17 15 16 15 13 12 12 11 11 11 10 9 8 7 6 6 5 6 6 6 7 6 6 6 6 6 6 6 6 6 6 5
12 9 9 14 11 12 12 13 13 15 17 17 16 18 14 15 13 13 12 12 12 12 11 9 9 8 7 6 6 5 6 6 6 6 6 5 5 5 6 5 5 5 5 5
8 9 8 9 9 12 14 15 14 14 15 17 17 16 15 15 15 14 13 13 13 12 11 10 10 9 7 6 5 5 5 5 5 5 5 5 5 5 5 4 5 5 5 4
7 7 5 7 1 10 13 11 12 13 15 14 15 16 14 14 13 13 12 13 13 12 12 11 10 9 7 5 5 5 4 4 4 4 4 5 5 5 4 5 5 4 4 3
8 9 10 -1 6 9 14 12 11 14 14 17 14 15 12 11 14 17 12 12 12 12 12 11 10 8 6 5 5 4 2 3 3 4 4 4 4 4 4 4 3 3 3 3
7 6 11 2 3 6 8 10 12 12 15 9 12 14 11 12 16 13 15 10 12 11 10 10 8 6 5 4 4 2 2 2 4 4 3 3 3 3 3 3 2 2 2 1
9 9 9 5 7 11 7 9 13 13 9 10 10 11 11 9 10 10 10 9 6 6 7 7 5 4 4 4 4 2 1 3 4 3 2 2 2 2 2 2 2 1 0 0
10 11 12 12 11 8 8 9 8 8 8 9 9 8 8 9 9 8 6 5 4 4 4 4 4 2 1 2 3 2 2 3 3 2 1 1 1 0 0 1 0 -0 -1 -1
6 7 8 10 9 9 7 7 8 8 9 8 8 7 7 8 7 6 3 2 2 1 2 3 1 1 0 1 2 3 3 3 2 1 0 -0 -0 -1 -1 -1 -1 -1 -1 -1
6 7 7 6 8 7 7 7 8 7 7 7 7 6 6 6 6 4 1 -0 -1 0 1 1 1 1 -0 0 2 3 3 2 1 0 -1 -1 -2 -2 -1 -2 -2 -2 -2 -3
4 6 7 7 8 8 8 8 7 6 7 6 6 6 6 5 4 2 -1 -0 -0 -1 0 1 1 -0 -2 -0 1 1 2 1 1 -1 -2 -3 -2 -2 -3 -4 -4 -3 -4 -7

GFSCGP_925_temp_105.txt.gz
Temp
15 15 15 16 17 18 18 18 18 18 18 18 17 18 18 16 16 15 14 14 14 15 17 18 20 20 20 19 19 19 18 18 17 17 16 16 17 16 16 16 16 16 16 16
15 15 17 17 17 18 16 18 17 18 17 18 17 17 17 16 15 16 16 15 14 15 15 17 19 19 19 19 19 18 19 19 18 17 17 17 17 17 16 16 16 16 16 16
15 16 17 17 16 17 17 18 16 18 17 17 17 17 18 18 16 17 15 15 15 15 14 14 15 17 18 19 19 18 19 19 18 18 17 16 16 16 16 16 16 16 16 16
14 16 16 16 16 17 16 17 17 16 17 16 17 15 16 16 17 16 15 14 14 13 14 13 14 16 17 18 18 18 18 18 18 17 17 16 16 15 17 17 17 16 15 15
14 15 15 15 16 17 17 17 17 16 16 17 16 15 15 15 16 16 15 15 14 13 12 12 13 15 16 16 17 18 17 17 17 17 17 16 17 17 17 16 15 15 14 14
15 16 16 16 16 16 16 17 15 14 15 15 16 15 15 14 16 17 19 15 14 12 11 11 14 14 15 15 15 16 17 17 15 16 16 16 17 17 17 15 15 14 13 13
14 14 15 16 16 16 17 16 15 15 14 15 12 13 19 17 15 15 16 16 14 11 10 10 9 10 12 13 14 15 15 16 16 15 15 16 16 17 16 15 14 13 13 13
14 15 13 14 16 16 15 17 13 13 11 14 12 13 15 15 15 14 13 13 11 11 10 9 9 11 12 12 13 13 14 14 15 15 15 15 15 17 15 14 14 13 12 12
14 14 14 15 16 17 15 15 16 12 4 11 13 13 15 15 14 13 13 11 10 10 9 9 9 10 10 11 11 12 13 13 13 13 14 15 15 16 15 14 13 12 12 11
14 15 13 14 16 16 16 16 16 13 11 12 14 13 15 16 17 16 13 11 10 9 8 8 8 9 10 10 10 11 11 11 12 13 14 14 14 15 14 14 12 12 11 11
14 14 13 14 14 14 15 15 15 16 12 13 11 14 12 17 17 18 15 11 9 8 7 6 7 8 9 9 9 10 10 10 10 11 12 13 13 13 13 12 11 11 10 10
14 11 10 13 14 13 14 16 17 17 14 11 12 14 16 13 13 14 13 11 9 8 7 6 6 7 8 8 8 9 9 9 10 11 11 12 12 12 11 10 10 10 9 8
12 11 9 13 15 13 13 14 16 14 12 13 12 17 15 13 14 13 12 10 9 7 6 5 5 6 6 7 7 7 8 9 9 10 10 10 10 10 10 9 9 8 8 8
14 12 13 15 16 13 13 14 14 16 14 14 13 17 17 17 15 14 11 10 9 8 7 6 5 5 6 6 7 7 7 8 8 9 9 9 9 9 9 8 8 7 7 7
15 12 12 14 15 15 15 14 14 15 17 16 18 15 17 17 16 14 11 9 8 8 8 7 6 5 5 6 6 7 7 7 7 8 8 8 8 8 7 7 7 7 6 6
12 10 12 12 13 14 14 14 15 15 16 16 17 16 16 15 13 12 11 10 10 10 9 8 7 6 6 5 5 6 6 6 7 7 7 7 7 7 7 6 6 6 5 5
12 8 8 10 11 12 12 12 13 15 16 17 15 18 14 14 13 14 11 11 11 11 10 9 8 7 7 6 6 5 6 6 6 6 6 6 6 6 6 5 5 5 5 5
10 12 8 7 9 11 15 13 14 14 15 16 17 16 15 14 14 14 12 12 12 12 11 10 9 9 7 7 6 6 6 6 5 5 5 5 5 5 5 5 4 4 4 4
7 9 6 10 6 10 13 11 12 13 16 13 14 14 14 14 14 13 12 12 13 12 12 12 11 10 8 6 6 5 4 4 4 4 5 5 5 4 4 4 4 3 3 3
8 9 10 0 10 12 16 11 11 13 13 16 14 13 12 12 14 18 14 12 12 12 13 11 11 9 8 6 5 4 3 3 2 4 5 4 4 5 4 4 3 3 3 3
7 6 10 1 6 6 7 10 11 12 14 9 12 13 10 12 16 11 11 12 10 10 10 11 10 8 7 5 4 3 2 2 3 4 4 4 4 4 4 3 3 3 2 2
9 9 7 3 4 11 7 9 13 13 9 10 10 10 10 9 8 8 8 8 7 7 8 10 8 7 6 5 4 3 2 2 3 4 4 3 3 2 2 2 1 1 1 0
11 11 10 10 10 9 6 9 8 7 8 9 10 9 8 8 9 7 6 5 4 5 5 7 6 4 3 3 4 3 2 3 3 3 3 2 1 1 1 1 1 -0 -0 -0
7 6 8 10 9 9 7 7 8 9 8 8 8 8 7 7 6 6 4 3 2 1 2 4 4 1 1 2 3 3 2 2 2 1 1 1 0 -0 -1 -1 -1 -1 -1 -0
5 6 6 6 8 7 7 7 8 8 7 8 7 7 7 6 5 5 2 -1 -1 1 2 3 2 1 1 1 2 2 1 1 -1 -0 -0 -1 -1 -1 -1 -2 -1 -1 -1 -1
5 7 8 7 7 7 8 8 7 7 8 7 6 7 6 5 4 4 0 -0 0 0 1 1 1 1 1 1 1 0 0 0 -0 -2 -2 -2 -1 -2 -2 -2 -3 -3 -4 -3

GFSCGP_925_temp_111.txt.gz
Temp
14 14 14 14 17 17 16 16 17 17 17 18 16 16 19 17 14 14 13 14 14 14 16 16 17 17 17 17 17 17 17 17 17 16 15 15 15 16 16 16 16 16 16 16
13 13 15 16 15 16 15 15 16 16 17 16 16 16 17 15 16 15 15 13 14 13 13 15 16 17 17 18 18 17 17 17 17 17 17 16 16 16 17 17 17 17 16 16
12 14 15 16 15 15 15 15 16 17 17 16 16 16 17 16 15 14 13 14 13 14 15 13 14 16 17 17 18 18 18 18 18 17 17 16 15 15 15 17 17 16 16 16
13 15 15 15 15 16 15 15 15 16 16 16 17 15 16 16 16 14 15 13 14 13 12 14 14 15 16 18 18 18 18 18 18 17 16 16 15 15 16 18 18 17 17 16
13 13 14 14 14 16 15 14 15 16 15 15 14 14 14 16 15 15 15 14 14 15 14 14 14 16 18 18 18 19 18 18 18 17 16 16 15 16 18 18 17 16 16 16
13 13 14 14 14 16 13 12 12 12 14 13 15 15 14 17 15 18 16 16 16 16 13 13 15 17 18 18 18 18 18 17 17 17 16 16 15 15 16 16 16 16 16 15
12 13 13 14 14 13 12 12 12 12 12 13 11 13 18 16 15 16 18 17 17 16 14 13 11 13 14 16 17 17 16 16 16 16 15 15 15 15 16 17 16 15 15 14
11 11 12 12 14 11 14 14 11 11 11 13 11 14 16 15 18 15 14 14 13 13 12 12 13 13 13 14 15 15 16 16 15 14 14 14 14 15 15 15 17 16 16 15
11 13 12 12 13 15 12 13 14 12 3 10 13 14 15 13 15 15 14 14 14 14 13 12 11 12 13 13 14 15 15 15 15 15 14 14 14 14 15 15 16 16 15 13
12 13 12 12 13 14 13 14 14 12 11 11 14 14 16 17 16 17 18 16 15 13 12 10 9 10 12 13 14 14 14 14 14 14 14 14 13 14 14 14 15 14 14 13
12 12 11 12 12 12 12 13 13 14 11 11 10 14 13 17 17 18 17 16 15 13 11 9 8 9 10 11 11 12 11 12 13 14 13 13 12 13 13 14 14 14 13 12
12 10 9 11 12 12 13 13 14 14 12 10 11 13 16 14 16 16 16 14 12 11 10 8 7 8 9 10 11 12 12 11 11 11 11 11 11 12 13 13 13 13 12 11
11 11 8 12 13 12 12 12 15 14 10 12 11 16 16 14 14 13 14 13 12 10 8 7 6 6 7 8 8 9 9 10 10 9 8 9 10 11 11 12 11 12 11 11
15 11 13 13 14 12 12 12 12 15 11 15 13 16 15 17 17 16 15 13 11 9 9 7 6 6 7 8 8 9 9 9 9 9 9 9 9 10 10 10 10 11 9 11
13 12 12 13 14 13 13 12 12 14 16 15 17 17 16 16 16 16 16 13 12 11 9 8 7 6 6 7 7 8 8 8 8 8 8 8 8 8 8 8 8 8 8 9
11 9 11 10 13 12 14 12 13 15 16 15 17 16 17 14 14 15 15 13 12 12 10 8 7 7 6 6 7 7 8 7 7 7 7 7 6 6 6 6 7 7 7 7
12 9 7 13 9 10 10 11 12 14 15 16 15 17 15 15 14 14 14 13 12 11 11 9 8 8 8 7 7 7 7 7 6 6 6 6 5 5 6 6 6 6 6 6
11 12 6 4 6 11 14 12 13 14 15 15 16 15 15 15 13 13 12 14 13 12 10 10 10 9 9 8 8 8 8 7 6 5 6 5 5 5 5 5 5 5 5 5
8 9 5 8 4 10 12 11 10 11 13 12 12 13 13 14 14 12 11 11 13 12 11 11 12 11 10 9 8 7 6 6 5 5 5 5 5 5 5 4 4 5 4 4
8 10 9 3 9 9 15 11 10 13 14 17 12 11 11 10 12 15 13 12 11 9 9 10 11 11 10 9 8 7 5 3 3 4 5 5 5 5 5 5 4 4 4 4
4 5 11 6 9 6 8 11 10 12 14 8 11 11 9 11 14 10 9 9 6 7 6 7 8 8 9 9 8 5 4 3 5 4 5 4 4 4 4 4 4 3 3 3
6 7 5 1 9 10 8 9 13 14 8 10 10 10 8 10 10 8 6 5 4 3 4 5 5 6 7 7 7 4 3 5 4 4 4 3 3 3 3 4 3 2 2 1
9 9 7 10 10 9 6 8 8 8 8 10 9 8 8 8 8 7 6 4 3 2 3 4 4 5 5 6 6 4 4 4 3 3 2 2 2 1 2 2 1 -0 -0 -0
8 7 7 9 9 9 7 7 7 7 7 6 6 6 6 6 6 5 3 2 1 1 1 2 3 3 4 4 4 4 4 4 3 2 1 0 -0 -0 1 1 1 0 -1 -2
6 6 4 4 7 7 6 7 6 5 4 4 4 4 4 4 4 4 1 -1 -1 -0 1 2 1 1 2 2 2 3 3 3 2 1 -0 -1 -1 -1 -2 -1 -0 -1 0 2
5 6 8 5 5 6 5 5 6 5 4 4 4 3 1 2 2 2 -1 -1 -1 -1 -0 1 1 1 1 2 2 1 2 2 2 -1 -2 -2 -3 -3 -3 -3 -3 -2 0 1

GFSCGP_925_temp_114.txt.gz
Temp
13 15 16 17 19 18 18 20 20 19 20 18 20 21 23 24 20 21 22 22 21 21 21 19 18 18 18 17 17 17 17 17 16 15 14 15 15 15 15 15 16 16 16 16
14 15 17 18 18 18 18 18 19 19 18 19 20 20 21 22 22 22 23 23 22 22 21 19 18 18 17 18 18 18 17 17 16 16 16 16 15 15 16 16 16 16 16 16
16 16 16 17 17 17 17 19 18 19 18 18 19 20 21 21 21 21 21 22 23 22 22 21 19 18 18 18 18 18 17 17 16 16 16 15 15 15 15 15 16 16 17 16
16 15 15 15 15 17 16 17 17 17 18 20 19 21 23 22 22 20 21 21 21 21 21 22 20 19 18 18 18 18 18 17 17 16 16 15 16 16 16 16 18 17 17 17
15 15 16 15 15 17 15 16 16 16 17 17 18 18 22 20 21 22 21 21 21 21 21 21 20 19 18 18 17 17 17 17 17 16 16 16 16 17 17 17 17 17 17 17
15 16 17 17 16 15 15 14 14 15 17 17 19 18 21 22 21 22 23 22 21 21 21 21 20 19 19 17 16 16 17 17 17 16 16 16 16 16 16 15 15 17 17 17
14 15 15 16 15 15 15 15 13 14 14 17 15 17 21 21 21 22 24 24 22 22 21 20 19 16 17 17 16 16 16 17 16 16 16 16 16 16 16 16 15 17 16 16
12 11 13 15 17 15 15 16 15 15 15 18 13 17 20 20 22 21 21 22 21 20 18 18 18 18 18 16 15 15 15 15 16 16 16 15 15 16 16 16 16 15 16 16
14 14 13 15 15 16 14 14 15 14 9 15 18 19 19 19 19 19 19 18 20 20 19 17 16 16 16 15 14 14 14 14 15 15 15 14 14 14 15 15 15 14 15 16
16 14 13 13 16 15 15 16 14 15 14 16 19 17 20 21 21 21 20 19 20 18 17 17 16 16 15 15 15 14 14 14 14 14 14 14 14 14 14 14 14 14 15 15
16 15 12 14 15 15 15 14 16 17 16 17 17 21 21 20 21 22 21 20 20 19 18 16 15 14 13 12 13 13 12 12 12 13 13 12 13 13 13 14 14 14 15 14
15 14 13 14 14 15 17 16 16 16 14 16 15 18 18 19 19 19 20 19 18 16 15 15 13 11 10 10 11 11 11 11 12 13 13 13 12 12 12 13 13 13 13 12
14 13 12 13 14 13 15 15 17 16 15 14 16 20 20 17 18 18 18 19 18 15 15 13 12 12 10 10 10 10 10 10 12 12 11 11 11 10 10 11 12 12 12 11
15 13 16 15 16 16 14 15 16 16 15 17 17 20 21 21 21 20 18 17 17 17 15 14 12 11 10 10 10 10 9 10 11 11 10 9 9 9 9 9 10 10 10 10
15 13 14 16 16 16 16 15 15 15 17 17 19 19 20 21 21 23 21 19 18 18 16 15 14 13 11 10 9 8 8 9 9 9 8 8 8 8 8 8 9 8 7 9
13 12 14 12 14 15 15 16 16 16 17 18 18 19 21 21 21 21 21 19 19 18 18 16 13 12 11 10 9 8 8 8 8 7 7 7 8 8 7 7 7 6 6 8
13 12 11 14 12 13 13 14 15 16 18 18 17 19 20 20 19 19 19 19 18 18 17 16 15 13 11 10 9 8 8 8 7 7 7 7 7 6 6 6 5 5 5 6
13 12 10 10 11 13 16 19 17 17 17 18 19 19 18 19 20 19 17 18 18 17 17 16 15 14 11 11 10 9 8 8 7 7 7 7 6 5 5 5 4 5 5 5
13 13 11 12 13 16 16 13 15 15 17 17 17 18 18 16 15 18 16 16 17 16 14 13 12 12 12 11 10 9 7 6 6 6 5 6 5 5 5 4 4 4 4 4
11 15 14 8 13 13 17 14 14 16 15 19 17 17 17 14 16 19 14 12 11 10 9 9 9 10 10 11 9 7 5 4 4 4 5 6 6 5 4 4 3 3 3 3
10 11 12 12 13 12 12 11 16 14 15 13 15 17 16 15 18 13 10 8 7 7 6 6 7 7 8 8 8 6 5 5 6 5 4 4 4 4 4 3 2 2 1 1
11 12 11 12 13 13 11 11 16 16 12 12 12 11 12 12 10 9 8 7 6 6 5 4 4 5 6 6 5 5 4 5 5 4 4 3 3 2 2 2 1 1 1 1
12 14 12 13 13 11 10 12 9 9 11 10 11 9 10 10 9 8 7 5 5 3 2 2 3 4 4 4 4 4 5 5 4 3 3 2 2 1 1 0 -0 -1 -1 -1
9 9 12 12 10 10 9 8 8 8 9 8 8 8 9 8 6 5 4 3 2 1 0 1 3 2 3 3 3 3 3 4 3 3 2 1 0 -0 -0 -0 -1 -1 -1 -1
10 9 8 8 7 7 7 8 7 6 6 5 4 5 6 6 4 4 2 1 0 -0 -0 0 0 1 1 2 3 3 2 3 2 1 1 -0 -1 -1 -1 -1 -1 -1 -1 -0
6 9 12 13 10 10 8 7 6 6 6 5 4 3 2 3 3 2 0 -1 -1 -1 -1 0 1 1 0 1 1 2 2 1 1 0 -1 -1 -2 -2 -2 -2 -3 -2 -2 -1

GFSCGP_925_temp_117.txt.gz
Temp
12 14 16 18 21 23 22 22 23 23 21 21 22 22 23 25 24 24 25 26 26 25 25 22 21 20 20 19 19 19 18 17 17 17 16 17 17 16 16 16 16 16 16 16
12 14 18 19 21 22 22 22 22 23 20 20 22 22 23 24 25 25 25 25 26 25 25 24 22 21 20 20 20 19 19 18 17 17 17 17 17 16 16 16 16 15 16 16
16 18 16 19 20 20 21 21 21 20 20 20 20 21 22 23 24 25 25 25 25 26 25 24 22 21 20 20 20 19 19 19 18 18 18 17 17 17 16 16 16 15 16 16
16 16 17 18 19 21 18 18 20 19 19 21 21 22 26 26 25 24 24 24 24 25 25 25 23 21 20 20 20 20 20 19 19 18 18 18 17 17 17 16 16 16 17 17
16 15 16 16 18 20 18 18 18 17 18 17 20 19 24 25 24 25 25 24 25 24 25 24 24 22 21 20 20 20 19 19 19 18 18 18 17 17 17 17 16 15 16 17
17 18 18 18 18 17 17 17 16 16 16 15 19 20 22 24 24 24 26 25 25 25 24 24 24 23 21 20 19 19 19 19 19 19 18 18 18 17 18 18 17 16 16 17
15 17 17 18 15 15 16 17 14 15 14 17 18 21 22 24 25 24 25 26 25 25 24 24 23 22 21 20 19 19 18 19 19 19 18 18 17 18 18 18 17 16 15 15
15 13 16 18 18 14 15 18 19 17 18 20 15 18 21 22 21 23 24 24 25 25 25 23 22 21 20 20 19 18 18 18 18 18 18 18 17 17 18 18 17 16 15 15
16 16 16 18 18 17 14 15 18 17 11 16 19 20 22 21 22 21 22 22 22 23 23 22 21 21 20 19 18 17 17 17 18 18 18 18 17 17 17 17 17 17 16 15
18 14 15 15 17 17 18 17 15 17 15 17 21 20 21 22 23 23 22 22 23 23 22 21 21 20 19 19 17 16 17 17 17 17 17 17 17 16 16 16 16 17 16 14
19 16 13 14 14 14 14 16 17 19 18 18 19 22 23 22 21 23 23 22 22 22 21 21 20 18 17 16 16 16 15 16 16 16 16 16 16 15 15 15 15 15 15 14
17 16 13 13 15 17 17 16 17 17 16 18 18 20 21 21 21 22 22 22 21 19 19 18 18 16 15 14 14 13 14 14 14 14 14 14 14 14 14 14 14 14 14 14
16 15 12 12 15 16 16 17 17 18 16 15 17 20 23 22 22 22 21 21 21 19 20 18 16 16 15 14 13 13 13 12 12 12 12 12 13 13 13 13 13 13 13 13
15 15 15 15 17 16 14 16 17 17 16 17 18 21 22 22 23 22 22 21 21 21 20 18 17 16 15 13 13 13 12 11 10 10 10 11 11 12 12 11 11 11 12 12
17 13 16 19 19 17 16 15 16 16 18 18 20 20 21 23 23 23 23 23 22 21 20 20 19 18 16 13 12 12 12 10 9 9 10 10 11 11 10 10 10 10 11 10
17 13 16 13 16 17 16 17 16 16 17 18 19 20 22 23 23 22 22 22 22 21 22 20 18 17 15 14 12 12 10 10 9 9 10 10 9 9 9 8 8 8 8 8
15 12 12 13 14 14 13 15 17 17 18 18 18 20 21 21 21 21 21 21 21 20 20 20 18 18 15 14 13 11 10 10 9 9 9 9 9 8 7 7 7 7 6 6
11 11 10 11 12 13 16 20 19 18 18 19 19 20 20 21 21 21 21 21 19 19 20 19 17 17 16 14 12 11 10 9 9 9 8 8 7 7 7 6 5 5 5 5
16 13 11 12 13 16 17 17 18 18 18 19 19 19 20 20 18 19 19 19 19 19 16 14 13 13 13 13 11 11 9 8 8 7 7 7 7 6 5 4 4 4 3 2
13 15 13 10 14 13 18 18 18 18 15 20 19 19 19 19 16 19 21 17 14 12 10 10 10 10 10 10 9 9 8 7 6 6 6 6 6 6 5 5 4 3 2 2
10 11 12 12 13 14 15 15 17 14 16 17 19 20 19 18 18 15 12 10 9 8 7 7 8 7 7 7 7 7 6 6 6 6 5 5 5 5 4 3 3 2 2 1
12 12 12 12 13 13 14 13 16 18 13 15 14 15 14 16 12 11 10 9 8 7 6 4 5 5 5 5 5 5 5 5 5 5 5 4 4 3 3 3 2 1 1 0
13 15 13 14 14 13 13 15 15 12 14 12 13 12 13 12 11 11 9 8 6 4 2 2 3 3 3 3 4 3 3 4 4 4 3 3 2 2 2 1 1 0 -0 -1
11 15 14 13 14 13 12 10 10 11 12 10 10 10 11 11 9 7 5 4 3 1 1 2 2 1 1 2 3 3 3 3 3 2 2 1 1 0 -0 -0 0 -0 -1 -1
12 11 9 10 9 10 10 10 11 8 7 7 6 7 9 7 5 4 2 2 1 0 0 1 1 0 -0 1 2 2 2 2 2 1 1 0 -0 -1 -1 -1 -1 -1 -1 -0
10 12 13 14 12 14 13 10 8 7 7 6 5 4 3 5 4 2 1 0 0 -1 -0 -1 -1 -1 -1 -0 0 1 1 1 0 0 -0 -1 -1 -1 -2 -2 -1 -1 -1 -1

GFSCGP_925_temp_123.txt.gz
Temp
13 15 16 16 16 19 18 18 19 19 18 17 18 17 19 19 19 18 18 18 17 18 19 19 20 20 20 20 19 18 18 17 16 15 15 16 16 16 16 16 16 16 16 16
13 15 16 16 17 18 18 19 18 19 18 18 17 18 18 18 19 18 18 18 18 18 17 19 19 20 20 20 19 18 18 17 16 15 15 15 16 16 16 16 16 16 16 16
15 17 17 16 16 16 17 18 18 19 18 19 18 17 17 18 20 19 19 19 19 18 19 18 19 19 19 19 19 19 18 17 16 15 14 14 15 16 16 16 16 16 16 16
16 16 16 16 16 17 17 17 17 18 18 17 17 16 17 19 19 20 21 19 20 19 18 19 19 19 18 19 19 19 18 17 17 16 15 15 15 15 16 16 16 16 16 16
15 15 16 16 17 17 17 17 15 16 16 17 17 16 16 18 18 20 20 20 17 18 18 17 19 19 19 19 19 19 19 18 17 16 16 15 16 16 16 16 16 16 16 16
15 16 16 17 15 16 14 16 14 14 15 15 15 16 16 18 20 20 18 19 19 17 17 17 20 20 19 19 18 18 18 18 17 17 16 16 16 16 15 16 16 16 16 16
15 15 15 16 13 13 14 16 14 15 15 16 15 15 18 18 19 20 21 19 17 17 17 18 17 17 18 18 18 18 18 17 17 17 16 16 16 16 16 16 16 15 15 15
15 15 15 15 15 14 15 17 16 16 14 14 14 14 17 18 19 18 20 18 18 18 16 16 18 18 18 18 18 18 17 18 17 17 18 17 17 16 16 16 16 16 15 15
16 14 15 15 15 15 14 14 16 13 6 12 14 15 17 17 17 18 17 19 18 20 19 15 16 18 19 19 18 19 18 18 17 18 17 17 17 16 16 16 16 16 16 16
16 12 14 15 15 15 16 16 16 14 13 13 14 15 17 19 18 18 18 16 17 18 19 17 15 18 19 19 20 19 19 19 19 18 18 18 17 17 16 16 16 16 16 16
14 13 12 13 14 13 14 15 16 15 13 13 13 15 15 18 18 19 17 17 15 16 15 14 14 17 18 18 18 18 18 18 18 18 18 18 18 17 17 16 16 16 16 16
15 11 12 12 13 15 15 17 17 17 14 14 13 15 17 17 17 17 17 16 15 15 13 13 14 15 16 16 16 17 17 18 18 17 17 17 17 17 17 17 16 16 16 17
14 11 11 11 12 13 14 15 16 15 13 13 13 15 16 17 16 16 16 15 15 14 14 13 12 12 14 14 15 16 16 16 16 16 16 16 16 16 16 16 16 17 16 16
13 12 14 15 17 13 13 14 15 15 12 12 15 16 17 17 17 16 16 15 14 14 14 13 12 12 14 14 14 14 14 14 14 14 14 14 14 15 15 15 15 15 15 15
14 11 14 14 14 14 14 14 14 15 16 16 18 16 16 16 16 15 15 14 15 15 14 14 13 12 13 14 14 14 14 14 13 12 12 12 13 13 13 13 13 14 14 14
14 11 13 10 13 14 14 15 15 16 17 17 16 16 17 16 16 15 15 15 17 18 17 17 15 14 14 14 14 14 13 13 12 11 11 11 10 10 10 11 11 11 11 11
13 10 11 10 11 11 10 13 15 16 17 17 15 18 15 16 16 15 15 16 16 16 16 15 15 14 14 14 14 13 13 12 11 11 10 10 10 10 9 9 9 9 8 8
10 11 9 9 12 11 13 14 16 16 16 16 17 15 15 16 16 16 15 15 15 14 14 14 13 13 13 13 13 12 12 11 10 9 9 9 9 9 9 9 8 8 7 6
11 10 9 10 7 10 13 12 14 14 15 16 16 16 15 16 16 15 14 14 15 14 13 12 12 12 11 11 11 11 10 9 9 8 8 8 8 8 7 7 7 6 6 6
10 10 10 8 11 11 13 14 14 15 14 16 15 15 13 14 14 17 14 14 9 8 9 9 9 9 8 8 9 9 8 7 7 7 7 7 7 6 6 6 5 5 5 5
9 9 10 10 9 10 10 11 15 11 15 14 15 15 15 14 16 12 7 6 6 5 6 7 7 5 5 6 6 6 5 5 5 6 6 6 5 5 4 4 3 3 3 3
10 10 9 7 7 12 10 12 15 14 13 13 12 11 12 12 8 7 6 4 3 2 3 4 3 2 3 5 5 3 3 3 4 5 5 5 4 4 3 3 2 2 2 1
10 12 11 12 12 12 10 14 13 11 11 13 11 10 10 7 7 5 4 2 2 1 1 2 1 0 1 2 4 2 1 2 3 3 3 3 2 2 2 1 1 1 1 0
10 10 9 11 11 12 11 10 11 12 11 10 9 8 8 8 5 3 2 1 -0 -1 -1 0 -0 -2 -2 -1 -0 -0 1 2 3 2 2 2 2 1 1 0 -0 -0 -0 -1
8 9 6 6 9 10 10 10 10 10 7 7 7 7 7 5 3 3 1 -1 -1 -2 -1 -1 -2 -3 -3 -1 -1 -0 1 1 2 1 1 1 1 0 -0 -1 -1 -1 -1 -1
6 9 11 9 8 11 11 9 6 6 6 5 5 5 4 3 2 0 -1 -2 -2 -3 -3 -3 -3 -4 -4 -3 -2 -1 -1 -0 0 -0 -1 -1 -1 -2 -1 -1 -1 -1 -1 -1